Other Public Products
Issued by NWS Charleston, SC

Home | Current Version | Previous Version | Text Only | Print | Product List | Glossary On
Versions: 1 2 3 4 5 6 7 8 9 10 11 12 13 14 15 16 17 18 19 20 21 22 23 24 25 26 27 28 29 30 31 32 33 34 35 36 37 38 39 40 41 42 43 44 45 46 47 48 49 50
689
FPUS82 KCHS 231127
OPUCHS

TEST...KCHS/KSAV Gateway Observations...TEST
National Weather Service Charleston SC
700 AM EDT SUN JUL 23 2017

NOTE: "fair" indicates few or no clouds below 12,000 feet with no
significant weather and/or obstructions to visibility.

SCZ050-WAZ558-NCZ071-TXZ119-213-PAZ071-DCZ001-FLZ074-172-MI076-
NYZ176-178-MAZ016-IL014-TNZ027-NJZ106-GAZ044-MD014-231200-

...Gateway Observations for Charleston International...

CITY           SKY/WX    TMP DP  RH WIND       PRES   REMARKS
Chas Airport   PTCLDY    77  74  90 SW6       29.95R
Seattle        CLOUDY    64  58  80 N12       30.08S
Charlotte      PTCLDY    78  72  81 S6        29.90R
Dallas DFW     PTCLDY    81  73  76 S9        29.87R
Dallas Love    PTCLDY    81  72  74 S8        29.88R
Philladelphia  CLOUDY    77  70  79 W8        29.75S
Wash National  MOCLDY    76  75  97 CALM      29.77S
Baltimore      CLOUDY    73  73 100 W5        29.75F FOG
Miami          MOCLDY    83  75  77 CALM      30.03R HX  90
Detroit        CLOUDY    71  66  84 N5        29.80R
Newark         CLOUDY    71  70  96 CALM      29.75S
Laguardia      CLOUDY    75  70  84 VRB3      29.75S
J F K          LGT RAIN  72  71  97 SE3       29.76S
Boston Logan   MOSUNNY   67  56  67 NE15      29.82R
Ft. Lauderdale MOCLDY    82  75  79 SE6       30.02R
Chicago O`Hare PTCLDY    72  69  90 CALM      29.80R
Chicago Midway PTCLDY    74  70  87 CALM      29.80R
Houston Bush   PTCLDY    79  75  87 S3        29.91R
Houston Hobby  CLOUDY    80  75  84 S3        29.91R
Nashville      PTCLDY    79  70  74 SW6       29.89F
Atlanta        PTCLDY    75  73  93 W6        29.98R

$$

GAZ044-118-TXZ119-213-NCZ071-DCZ001-MDZ014-506-PAZ021-071-NJZ106-
NYZ176-178-MAZ106-OHZ011-021-055-MIZ076-KYZ091-ILZ014-INZ047-
MNZ060-ONZ431-231200-

...Gateway Observations for Savannah International...

CITY           SKY/WX    TMP DP  RH WIND       PRES   REMARKS
Savannah Arpt  CLOUDY    77  74  90 SW8       29.99R
Atlanta        PTCLDY    75  73  93 W6        29.98R
Charlotte      PTCLDY    78  72  81 S6        29.90R
Dallas DFW     PTCLDY    81  73  76 S9        29.87R
Houston Bush   PTCLDY    79  75  87 S3        29.91R
Wash National  MOCLDY    76  75  97 CALM      29.77S
Wash Dulles    MOCLDY    72  71  97 CALM      29.78S FOG
Baltimore      CLOUDY    73  73 100 W5        29.75F FOG
Philadelphia   CLOUDY    77  70  79 W8        29.75S
Newark         CLOUDY    71  70  96 CALM      29.75S
Laguardia      CLOUDY    75  70  84 VRB3      29.75S
J F K          LGT RAIN  72  71  97 SE3       29.76S
Boston         MOSUNNY   67  56  67 NE15      29.82R
Pittsburg      CLOUDY    73  72  96 W5        29.82R FOG
Akron          CLOUDY    72  69  90 SW5       29.80S
Cleveland      CLOUDY    75  71  87 SW3       29.80R
Cincinnati     CLOUDY    71  71 100 SW7       29.84S
Columbus       CLOUDY    72  72 100 S10       29.83R
Detroit        CLOUDY    71  66  84 N5        29.80R
Chicago O`Hare PTCLDY    72  69  90 CALM      29.80R
Minneapolis    MOCLDY    70  55  59 NW9       29.85S
Indianapolis   CLOUDY    72  69  90 SW7       29.82R
Toronto Canada CLOUDY    68  64  88 E5        29.78R

$$




USA.gov is the U.S. government's official web portal to all federal, state and local government web resources and services.